Randolph, MN

5:30 PM CST on February 09, 2016 (GMT -0600)
Stanton

Weather History for KSYN - December, 2013

Change the Weather History Date:

Sunday, December 1, 2013

  Actual Average (KLVN) Record (KLVN)
Temperature  
Mean Temperature 26 °F -  
Max Temperature 36 °F 31 °F 71 °F (1998)
Min Temperature 17 °F 16 °F -7 °F (2014)
Degree Days  
Heating Degree Days 38    
Moisture  
Dew Point 22 °F    
Average Humidity 80    
Maximum Humidity 93    
Minimum Humidity 63    
Precipitation  
Precipitation 0.00 in - - ()
Sea Level Pressure  
Sea Level Pressure 30.07 in    
Wind  
Wind Speed 0 mph (East)    
Max Wind Speed 5 mph    
Max Gust Speed -    
Visibility 7 miles    
Events      
Averages and records for this station are not official NWS values.
T = Trace of Precipitation, MM = Missing Value Source: NWS Daily Summary

Daily Weather History Graph

Daily Weather History Graph

Search for Another Location

Airport or City:

Trip Planner

Search our weather history database for the weather conditions in past years. The results will help you decide how hot, cold, wet, or windy it might be!

Date:

Astronomy

Dec. 01, 2013 Rise Set
Actual Time 7:28 AM CST 4:33 PM CST
Civil Twilight 6:55 AM CST 5:06 PM CST
Nautical Twilight 6:19 AM CST 5:42 PM CST
Astronomical Twilight 5:44 AM CST 6:17 PM CST
Moon 5:44 AM CST (12/1) 3:46 PM CST (12/1)
Length of Visible Light 10h 10m
Length of Day
9h 05m
Waning Crescent, 2% of the Moon is Illuminated
Dec 1
Waning Crescent
Dec 2
New
Dec 9
First Quarter
Dec 17
Full
Dec 25
Last Quarter

Hourly Weather History & Observations

Time (CST) Temp. Windchill Dew Point Humidity Pressure Visibility Wind Dir Wind Speed Gust Speed Precip Events Conditions
12:12 AM 30.0 °F - 23.7 °F 77% 30.13 in 10.0 mi Calm Calm - N/A   Clear
12:32 AM 29.3 °F - 23.5 °F 79% 30.13 in 10.0 mi Calm Calm - N/A   Clear
12:52 AM 29.1 °F - 23.5 °F 80% 30.13 in 10.0 mi Calm Calm - N/A   Clear
1:12 AM 28.0 °F - 23.0 °F 81% 30.13 in 7.0 mi Calm Calm - N/A   Clear
1:32 AM 27.0 °F - 22.8 °F 84% 30.14 in 7.0 mi Calm Calm - N/A   Clear
1:52 AM 26.4 °F - 22.5 °F 85% 30.14 in 7.0 mi Calm Calm - N/A   Scattered Clouds
2:12 AM 28.2 °F - 23.0 °F 81% 30.15 in 7.0 mi Calm Calm - N/A   Scattered Clouds
2:32 AM 27.5 °F - 22.6 °F 82% 30.14 in 7.0 mi Calm Calm - N/A   Clear
2:52 AM 27.1 °F - 23.0 °F 84% 30.14 in 7.0 mi Calm Calm - N/A   Clear
3:12 AM 24.4 °F - 20.8 °F 86% 30.14 in 7.0 mi Calm Calm - N/A   Clear
3:32 AM 23.7 °F - 21.0 °F 89% 30.14 in 5.0 mi Calm Calm - N/A   Scattered Clouds
3:52 AM 24.4 °F - 22.1 °F 91% 30.14 in 5.0 mi Calm Calm - N/A   Scattered Clouds
4:12 AM 22.3 °F - 19.8 °F 90% 30.13 in 5.0 mi Calm Calm - N/A   Clear
4:32 AM 22.8 °F - 21.0 °F 93% 30.15 in 5.0 mi Calm Calm - N/A   Clear
4:52 AM 20.7 °F 15.8 °F 18.3 °F 91% 30.15 in 5.0 mi West 3.5 mph - N/A   Clear
5:12 AM 21.2 °F - 18.9 °F 91% 30.15 in 5.0 mi Calm Calm - N/A   Clear
5:32 AM 21.7 °F - 19.2 °F 90% 30.15 in 5.0 mi Calm Calm - N/A   Clear
5:52 AM 20.3 °F - 17.6 °F 89% 30.15 in 5.0 mi Calm Calm - N/A   Clear
6:12 AM 21.4 °F - 19.0 °F 91% 30.15 in 5.0 mi Calm Calm - N/A   Clear
6:32 AM 19.4 °F - 16.9 °F 90% 30.15 in 4.0 mi Calm Calm - N/A   Clear
6:52 AM 19.2 °F - 16.7 °F 90% 30.16 in 4.0 mi Calm Calm - N/A   Clear
7:12 AM 17.2 °F - 14.4 °F 88% 30.16 in 4.0 mi Calm Calm - N/A   Clear
7:32 AM 17.4 °F 12.1 °F 14.7 °F 89% 30.16 in 4.0 mi South 3.5 mph - N/A   Clear
7:52 AM 19.2 °F - 16.9 °F 91% 30.16 in 3.0 mi Calm Calm - N/A   Clear
8:12 AM 17.1 °F - 14.0 °F 88% 30.16 in 4.0 mi Calm Calm - N/A   Clear
8:32 AM 19.2 °F - 16.7 °F 90% 30.15 in 4.0 mi Calm Calm - N/A   Clear
8:52 AM 21.9 °F - 19.6 °F 91% 30.16 in 4.0 mi Calm Calm - N/A   Clear
9:12 AM 24.4 °F - 22.3 °F 91% 30.17 in 4.0 mi Calm Calm - N/A   Clear
9:32 AM 25.9 °F - 22.8 °F 88% 30.17 in 5.0 mi Calm Calm - N/A   Clear
9:52 AM 26.8 °F - 23.4 °F 87% 30.16 in 5.0 mi Calm Calm - N/A   Clear
10:12 AM 27.9 °F - 23.5 °F 84% 30.15 in 5.0 mi Calm Calm - N/A   Haze
10:32 AM 30.0 °F - 25.3 °F 83% 30.16 in 5.0 mi Calm Calm - N/A   Haze
10:52 AM 31.3 °F - 25.0 °F 77% 30.15 in 7.0 mi Calm Calm - N/A   Overcast
11:12 AM 32.0 °F - 24.6 °F 74% 30.14 in 7.0 mi Calm Calm - N/A   Overcast
11:32 AM 32.0 °F - 24.8 °F 75% 30.13 in 7.0 mi Calm Calm - N/A   Overcast
11:52 AM 33.3 °F - 25.3 °F 73% 30.12 in 7.0 mi Calm Calm - N/A   Overcast
12:12 PM 34.0 °F - 25.5 °F 71% 30.11 in 7.0 mi Calm Calm - N/A   Overcast
12:32 PM 34.7 °F - 25.3 °F 69% 30.10 in 7.0 mi Calm Calm - N/A   Overcast
12:52 PM 35.8 °F 33.0 °F 25.5 °F 66% 30.08 in 7.0 mi ENE 3.5 mph - N/A   Overcast
1:12 PM 35.6 °F - 25.5 °F 67% 30.08 in 7.0 mi Calm Calm - N/A   Overcast
1:32 PM 35.6 °F - 25.3 °F 66% 30.07 in 10.0 mi Calm Calm - N/A   Overcast
1:52 PM 35.6 °F - 25.2 °F 66% 30.07 in 7.0 mi Calm Calm - N/A   Overcast
2:12 PM 35.8 °F - 25.3 °F 66% 30.06 in 10.0 mi Calm Calm - N/A   Overcast
2:32 PM 36.0 °F - 25.2 °F 65% 30.05 in 10.0 mi Calm Calm - N/A   Overcast
2:52 PM 36.0 °F - 25.2 °F 65% 30.03 in 10.0 mi Calm Calm - N/A   Overcast
3:12 PM 36.1 °F - 24.6 °F 63% 30.02 in 10.0 mi Calm Calm - N/A   Overcast
3:32 PM 36.1 °F - 25.0 °F 64% 30.03 in 10.0 mi Calm Calm - N/A   Overcast
3:53 PM 35.6 °F 31.7 °F 25.2 °F 66% 30.03 in 10.0 mi North 4.6 mph - N/A   Overcast
4:12 PM 34.7 °F 31.8 °F 24.8 °F 67% 30.03 in 10.0 mi North 3.5 mph - N/A   Overcast
4:32 PM 34.0 °F - 24.8 °F 69% 30.03 in 7.0 mi Calm Calm - N/A   Overcast
4:53 PM 33.6 °F 29.4 °F 24.8 °F 70% 30.02 in 7.0 mi East 4.6 mph - N/A   Overcast
5:12 PM 33.6 °F - 24.8 °F 70% 30.01 in 10.0 mi Calm Calm - N/A   Overcast
5:32 PM 32.9 °F - 24.8 °F 72% 30.02 in 10.0 mi Calm Calm - N/A   Overcast
5:52 PM 33.1 °F - 25.0 °F 72% 30.01 in 10.0 mi Calm Calm - N/A   Overcast
6:12 PM 33.4 °F 30.4 °F 24.6 °F 70% 30.00 in 10.0 mi East 3.5 mph - N/A   Scattered Clouds
6:32 PM 33.1 °F 28.7 °F 24.6 °F 71% 29.99 in 10.0 mi East 4.6 mph - N/A   Clear
6:52 PM 32.0 °F 28.7 °F 24.4 °F 74% 29.99 in 7.0 mi East 3.5 mph - N/A   Scattered Clouds
7:12 PM 32.0 °F - 24.8 °F 75% 29.99 in 10.0 mi Calm Calm - N/A   Scattered Clouds
7:32 PM 28.8 °F - 23.2 °F 80% 29.98 in 7.0 mi Calm Calm - N/A   Mostly Cloudy
7:52 PM 28.9 °F - 23.4 °F 80% 29.97 in 7.0 mi Calm Calm - N/A   Scattered Clouds
8:12 PM 29.7 °F 26.1 °F 24.3 °F 80% 29.95 in 7.0 mi SE 3.5 mph - N/A   Clear
8:32 PM 27.9 °F - 22.5 °F 80% 29.95 in 7.0 mi Calm Calm - N/A   Clear
8:52 PM 25.2 °F - 21.4 °F 86% 29.94 in 7.0 mi Calm Calm - N/A   Clear
9:12 PM 25.7 °F - 22.1 °F 86% 29.94 in 7.0 mi Calm Calm - N/A   Clear
9:32 PM 26.6 °F - 22.8 °F 86% 29.95 in 7.0 mi Calm Calm - N/A   Clear
9:52 PM 25.3 °F - 21.9 °F 87% 29.94 in 5.0 mi Calm Calm - N/A   Clear
10:12 PM 24.3 °F - 21.2 °F 88% 29.93 in 5.0 mi Calm Calm - N/A   Clear
10:32 PM 24.8 °F - 21.7 °F 88% 29.93 in 5.0 mi Calm Calm - N/A   Clear
10:52 PM 22.1 °F - 19.4 °F 89% 29.92 in 5.0 mi Calm Calm - N/A   Scattered Clouds
11:12 PM 23.0 °F - 20.7 °F 91% 29.92 in 5.0 mi Calm Calm - N/A   Mostly Cloudy
11:32 PM 22.1 °F - 19.2 °F 89% 29.92 in 5.0 mi Calm Calm - N/A   Overcast
11:52 PM 23.0 °F - 19.9 °F 88% 29.92 in 7.0 mi Calm Calm - N/A   Mostly Cloudy